Location: Janeiro
(34.9957°N, 76.7652°W)
Time: 18:46:30
(UTC+00:00)

Envisat - Pass Details

Date: 14 December 2019
Orbit: 764 x 766 km, 98.1° (Epoch: 26 January)

Event Time Altitude Azimuth Distance (km) Brightness Sun altitude
Rises 23:24:38 0° 176° (S) 3,216 6.4 -17.5°
Reaches altitude 10° 23:26:58 10° 180° (S) 2,294 5.7 -18.0°
Maximum altitude 23:31:57 59° 260° (W) 884 3.6 -19.0°
Drops below altitude 10° 23:36:58 10° 339° (NNW) 2,309 5.5 -20.0°
Sets 23:39:19 0° 343° (NNW) 3,239 6.3 -20.4°
